Regional Weather Roundup
Issued by NWS

Home | Current Version | Previous Version | Text Only | Print | Product List | Glossary On
Versions: 1 2 3 4 5 6 7 8 9 10 11 12 13 14 15 16 17 18 19 20 21 22 23 24 25 26 27 28 29 30 31 32 33 34 35 36 37 38 39 40 41 42 43 44 45 46 47 48 49 50
847
ASUS43 KBIS 101902
RWRND

NORTH DAKOTA REGIONAL WEATHER ROUNDUP
NATIONAL WEATHER SERVICE BISMARCK ND
100 PM CST SAT DEC 10 2016

NOTE: "FAIR" INDICATES FEW OR NO CLOUDS BELOW 12,000 FEET WITH NO
SIGNIFICANT WEATHER AND/OR OBSTRUCTIONS TO VISIBILITY.


NDZ001>003-009>011-017-102000-
NORTHWEST NORTH DAKOTA

CITY           SKY/WX    TMP DP  RH WIND       PRES   REMARKS
WILLISTON      LGT SNOW   0  -7  72 SE13      30.09F WCI -18
MINOT          CLOUDY    -9 -14  78 E6        30.20F WCI -22
MINOT AFB      CLOUDY   -12 -18  77 E7        30.20F WCI -28
$$

NDZ018>021-031>035-040>046-102000-
SOUTHWEST NORTH DAKOTA

CITY           SKY/WX    TMP DP  RH WIND       PRES   REMARKS
BISMARCK       FLURRIES  -8 -10  91 E7        30.21F WCI -23
DICKINSON      CLOUDY    -2  -8  76 SE16      29.97F WCI -23
GARRISON         N/A     -6 -10  83 SE10      30.15F WCI -24
HETTINGER ARPT CLOUDY    -2  -7  79 E15       29.98F WCI -22
$$

NDZ004>008-012>016-024-026-027-054-102000-
NORTHEAST NORTH DAKOTA

CITY           SKY/WX    TMP DP  RH WIND       PRES   REMARKS
GRAND FORKS    CLOUDY    -2  -8  76 S5        30.39F WCI -12
GRND FRKS AFB  MOSUNNY   -3 -11  69 SE3       30.38F
DEVILS LAKE    CLOUDY    -5  -8  87 S9        30.29F WCI -22
$$

NDZ022-023-025-028>030-036>039-047>053-102000-
SOUTHEAST NORTH DAKOTA

CITY           SKY/WX    TMP DP  RH WIND       PRES   REMARKS
FARGO          PTSUNNY    1  -8  66 E7        30.37F WCI -12
JAMESTOWN      CLOUDY    -3  -8  79 SE10      30.26F WCI -20
$$





USA.gov is the U.S. government's official web portal to all federal, state and local government web resources and services.